Location: Latimer
(34.1330°N, 82.5927°W)
Time: 00:01:42
(UTC+00:00)

Envisat - Visible Passes

Search period start: 13 August 2022 00:00
Search period end: 23 August 2022 00:00
Orbit: 763 x 765 km, 98.2° (Epoch: 12 August)

Date Brightness Start Highest point End Pass type
(mag) Time Alt. Az. Time Alt. Az. Time Alt. Az.
13 Aug 4.9 09:07:51 10° NE 09:12:12 28° E 09:16:31 10° SSE visible
14 Aug 5.8 08:33:28 10° ENE 08:34:58 11° E 08:36:29 10° ESE visible
14 Aug 3.0 10:09:19 10° N 10:14:20 65° WNW 10:19:21 10° SSW visible
15 Aug 3.8 09:32:28 10° NNE 09:37:25 52° E 09:42:20 10° S visible
16 Aug 5.3 08:56:28 10° NE 09:00:19 21° E 09:04:09 10° SE visible
17 Aug 3.0 09:57:28 10° N 10:02:34 86° WNW 10:07:38 10° SSW visible
18 Aug 4.3 09:20:50 10° NNE 09:25:35 39° E 09:30:18 10° SSE visible
19 Aug 5.6 08:45:17 10° NE 08:48:25 16° E 08:51:32 10° SE visible
19 Aug 3.3 10:22:45 10° N 10:27:36 46° WNW 10:32:26 10° SW visible
20 Aug 3.2 09:45:40 10° NNE 09:50:45 73° ESE 09:55:49 10° S visible
21 Aug 4.8 09:09:17 10° NE 09:13:43 30° E 09:18:07 10° SSE visible
22 Aug 5.8 08:34:34 10° ENE 08:36:29 12° E 08:38:26 10° ESE visible
22 Aug 3.1 10:10:50 10° N 10:15:50 61° WNW 10:20:50 10° SSW visible
